Rbgn^[z[y[W
メイン
   新天体発見情報
     Comet C/2019 F2 (ATLAS)
投稿するにはまず登録を

スレッド表示 | 新しいものから 前のトピック | 次のトピック | 下へ
投稿者 スレッド
佐藤裕久
投稿日時: 2019-4-23 8:50
モデレータ
登録日: 2005-6-12
居住地: 日本
投稿: 2005
オンライン
Comet C/2019 F2 (ATLAS)

G. V. Williams (小惑星センター)の通報によると、A. Fitzsimmonsから、3月26.3日UT、Mauna 
Loaにある小惑星地球衝突最終警報システム Asteroid Terrestrial-impact Last Alert System 
(ATLAS)調査プログラムのコースに0.5-m 反射望遠鏡で得たCCD画像から彗星活動のある天体を検知
したと通知があった。東にかすかな10"の尾が見え、彗星の頭部のFWHM (半値全幅)は近傍の恒星が
4".5であるのに対し6".3であった。その後、2月26日の発見前のATLASイメージが確認された。
小惑星センターのPCCP webpageに公表後、K. Sarneczky (Konkoly天文台, Piszkesteto, ハンガリー,
0.60-m Schmidt望遠鏡, 3月26.8日UT、8"の集光したコマとp.a. 95°に約40"の真直ぐな尾が見える)
や佐藤英貴氏(東京都文京区, JBL 天文台, 0.32-m f/9.1 アストログラフ, Bathurst,ニューサウス
ウェールズ州, オーストラリア, 遠隔操作、3月27.41日、60秒露出9枚のスタックで、強く集光した6"
非対称なコマが見えるが、尾はない。3".8の円形範囲で測定した光度は18.5等であった)らCCD位置観
測者によって彗星状と観測された。

発見位置は次のとおり、

     2019 UT             R.A. (2000) Decl.       Mag.
     Feb. 26.36477    7 16 43.94   + 1 52 34.4   18.4
          26.37281    7 16 43.86   + 1 52 38.6   18.3
          26.38079    7 16 43.76   + 1 52 42.5   18.4
          26.38878    7 16 43.65   + 1 52 45.9   18.6
     Mar. 26.30690    7 21 22.57   + 5 45 22.0   17.5
          26.31534    7 21 22.80   + 5 45 26.3   18.0
          26.32338    7 21 23.04   + 5 45 30.1   18.0
          26.33189    7 21 23.28   + 5 45 33.7   18.2

楕円軌道要素と位置推算表は次のとおり、

Orbital elements:
    C/2019 F2 (ATLAS)
Epoch 2019 Aug. 25.0 TT = JDT 2458720.5
T 2019 Sept. 8.90557 TT                                 MPCW
q   2.2327268            (2000.0)            P               Q
n   0.01466030     Peri.   10.95913     -0.99214216     +0.12285755
a  16.5338563      Node   175.87127     -0.12430622     -0.98941176
e   0.8649603      Incl.   19.18788     +0.01420875     -0.07726835
P  67.23
From 505 observations 2019 Feb. 26-Apr. 21, mean residual 0".4.

    C/2019 F2 (ATLAS)
Epoch 2087 Mar. 21.0 TT = JDT 2483400.5
T 2087 Mar. 16.86189 TT                                 MPCW
q   2.2592443            (2000.0)            P               Q
n   0.01402257     Peri.   11.42009     -0.99252097     +0.11881069
a  17.0314225      Node   175.13378     -0.12057815     -0.98999676
e   0.8673485      Incl.   19.30072     +0.01905357     -0.07609492
P  70.29
From 505 observations 2019 Feb. 26-Apr. 21, mean residual 0".4.

    C/2019 F2 (ATLAS)
Epoch 2019 Apr. 27.0 TT = JDT 2458600.5
T 2019 Sept. 8.89381 TT                                 MPCW
q   2.2327551            (2000.0)            P               Q
n   0.01464740     Peri.   10.95429     -0.99215120     +0.12278545
a  16.5435624      Node   175.87199     -0.12423409     -0.98942011
e   0.8650378      Incl.   19.18733     +0.01420845     -0.07727595
P  67.29
From 505 observations 2019 Feb. 26-Apr. 21, mean residual 0".4.

Ephemeris:
    C/2019 F2 (ATLAS)
Date    TT    R. A. (2000) Decl.     Delta      r     Elong.  Phase   m1
2019 03 23    07 19 49.9 +05 19 08   2.3772  2.8494   108.1    19.4  18.4
...
2019 04 07    07 28 54.9 +07 11 53   2.4689  2.7589    96.0    21.1  18.4
...
2019 04 15    07 35 51.0 +08 04 05   2.5214  2.7124    89.9    21.7  18.3
...
2019 04 21    07 41 55.5 +08 38 54   2.5614  2.6784    85.6    22.0  18.3
2019 04 22    07 43 00.4 +08 44 19   2.5681  2.6729    84.9    22.0  18.3
2019 04 23    07 44 06.4 +08 49 38   2.5748  2.6673    84.2    22.0  18.3
...
2019 04 29    07 51 06.2 +09 19 06   2.6147  2.6344    80.0    22.1  18.3
...
2019 05 07    08 01 25.7 +09 51 43   2.6673  2.5920    74.8    22.1  18.3
...
2019 05 22    08 23 29.9 +10 31 19   2.7613  2.5172    65.6    21.5  18.2

     The initial report of cometary activity was received from A. Fitzsimmons
T08, Mar. 26) who described a FWHM of 6".3 (compared to 4".5 for nearby stars)
and a faint 10" tail to the east, although there was some confusion with a
nearby bright star).  K. Sarneczky (K88, Mar. 26) noted a condensed 8" coma and
a straight 40" tail in P.A. 95.  Selected other reports of cometary activity
are listed below:

OC   Date     Reporter      Coma        Tail
595  Mar. 26  L. Bittesini    8"        20" in P.A. 100
J95  Mar. 26  P. Birtwhistle  9"        17" in P.A. 98
L27  Mar. 27  J.-F. Soulier  ~10"      ~12" in P.A. ~90
T05  Mar. 28  A. Fitzsimmons            ~8" in P.A. 115
118  Mar. 29  S. Gajdos       6" x 12"
108  Mar. 30  S. Foglia      12" diffuse
094  Mar. 30  A. Novichonok  11"        16" in P.A. 94
Q11  Apr.  3  H. Sato         7"        11" in P.A. 108
734  Apr. 13  G. Hug                    15" in P.A. ~100
291  Apr. 15  R. S. McMillan           ~10" to ESE
691  Apr. 16  R. S. McMillan             6" to ESE
104  Apr. 18  P. Bacci                   7".5 in P.A. 122
595  Apr. 19  L. Bittesini               8" in P.A. 110
H36  Apr. 20  G. Hug                   ~15" in P.A. ~100, diffuse
B96  Apr. 20  E. Bryssinck    9" x 14"  18" in P.A. 97

(CBET 4620、MPEC 2019-H29)

スレッド表示 | 新しいものから 前のトピック | 次のトピック | トップ

投稿するにはまず登録を
 
© 1999 Tsutomu Seki.